Tracking 28531 objects as of 2-Mar-2024
HD Live streaming from Space Station
objects crossing your sky now

FLOCK 4Q 5

Track FLOCK 4Q 5 now!
10-day predictions
FLOCK 4Q 5 is classified as:


NORAD ID: 58325
Int'l Code: 2023-174BX
Perigee: 509.8 km
Apogee: 526.5 km
Inclination: 97.5 °
Period: 94.8 minutes
Semi major axis: 6889 km
RCS: Unknown
Launch date: November 11, 2023
Source: United States (US)
Launch site: AIR FORCE WESTERN TEST RANGE (AFWTR)
Your satellite tracking list
Your tracking list is empty




NASA's NSSDC Master Catalog

Two Line Element Set (TLE):
1 58325U 23174BX  24061.76652106  .00019148  00000-0  93392-3 0  9998
2 58325  97.4675 138.0869 0012102 228.6956 131.3237 15.18286917 17424
Source of the keplerian elements: AFSPC